This is the latest recevied weather packets stored in our database for station/object KM4CBK. If no packets are shown the sender has not sent any weather packets the latest 10 day(s).
| Time | Temp. | Humidity | Pressure | Rain* | Wind** | Luminosity | Snow |
|---|---|---|---|---|---|---|---|
| 1777965197 | 12.22° C | 93% | 1013.1 hPa | 0 mm | - | 0 W/m² | - |
| 1777964896 | 12.22° C | 93% | 1013.1 hPa | 0 mm | - | 0 W/m² | - |
| 1777964592 | 12.22° C | 92% | 1013.3 hPa | 0 mm | - | 0 W/m² | - |
| 1777964287 | 12.22° C | 92% | 1013.3 hPa | 0 mm | - | 0 W/m² | - |
| 1777963984 | 12.78° C | 91% | 1013.5 hPa | 0 mm | - | 0 W/m² | - |
| 1777963681 | 12.78° C | 90% | 1013.5 hPa | 0 mm | - | 0 W/m² | - |
| 1777963378 | 12.78° C | 89% | 1013.2 hPa | 0 mm | - | 0 W/m² | - |
| 1777963076 | 12.78° C | 89% | 1013.3 hPa | 0 mm | - | 0 W/m² | - |
| 1777962772 | 13.33° C | 88% | 1013.3 hPa | 0 mm | - | 0 W/m² | - |
| 1777962469 | 13.33° C | 88% | 1013.5 hPa | 0 mm | - | 0 W/m² | - |
| 1777962166 | 13.89° C | 86% | 1013.1 hPa | 0 mm | - | 0 W/m² | - |
| 1777961863 | 13.89° C | 85% | 1013.7 hPa | 0 mm | - | 0 W/m² | - |
| 1777961561 | 13.89° C | 86% | 1013.3 hPa | 0 mm | - | 0 W/m² | - |
| 1777961258 | 13.89° C | 85% | 1013.3 hPa | 0 mm | - | 0 W/m² | - |
| 1777960955 | 13.89° C | 85% | 1013.7 hPa | 0 mm | - | 0 W/m² | - |
| 1777960650 | 13.89° C | 84% | 1013.6 hPa | 0 mm | - | 0 W/m² | - |
| 1777960347 | 13.89° C | 84% | 1013.6 hPa | 0 mm | - | 0 W/m² | - |
| 1777960044 | 14.44° C | 84% | 1013.5 hPa | 0 mm | - | 0 W/m² | - |
| 1777959742 | 14.44° C | 83% | 1013.5 hPa | 0 mm | - | 0 W/m² | - |
| 1777959440 | 14.44° C | 82% | 1013.5 hPa | 0 mm | - | 0 W/m² | - |
| 1777959136 | 14.44° C | 81% | 1013.6 hPa | 0 mm | - | 0 W/m² | - |
| 1777958834 | 15° C | 81% | 1013.5 hPa | 0 mm | - | 0 W/m² | - |
| 1777958530 | 14.44° C | 81% | 1013.3 hPa | 0 mm | - | 0 W/m² | - |
| 1777958228 | 14.44° C | 82% | 1013.6 hPa | 0 mm | - | 0 W/m² | - |
| 1777957926 | 14.44° C | 81% | 1013.3 hPa | 0 mm | - | 0 W/m² | - |
* Rain latest hour (hover to see other rain measurements)
** Current wind speed in m/s (hover to see current wind gust speed)